locationName,lineName,date,time,countIn,countOut
�����w�O,��������,2022/5/1,0:00,3,14
�����w�O,��������,2022/5/1,1:00,2,10
�����w�O,��������,2022/5/1,2:00,0,3
�����w�O,��������,2022/5/1,3:00,5,5
�����w�O,��������,2022/5/1,4:00,0,4
�����w�O,��������,2022/5/1,5:00,10,5
�����w�O,��������,2022/5/1,6:00,66,122
�����w�O,��������,2022/5/1,7:00,94,82
�����w�O,��������,2022/5/1,8:00,210,288
�����w�O,��������,2022/5/1,9:00,456,538
�����w�O,��������,2022/5/1,10:00,525,599
�����w�O,��������,2022/5/1,11:00,484,459
�����w�O,��������,2022/5/1,12:00,474,672
�����w�O,��������,2022/5/1,13:00,518,647
�����w�O,��������,2022/5/1,14:00,524,549
�����w�O,��������,2022/5/1,15:00,548,582
�����w�O,��������,2022/5/1,16:00,469,513
�����w�O,��������,2022/5/1,17:00,352,405
�����w�O,��������,2022/5/1,18:00,315,363
�����w�O,��������,2022/5/1,19:00,226,272
�����w�O,��������,2022/5/1,20:00,126,218
�����w�O,��������,2022/5/1,21:00,52,91
�����w�O,��������,2022/5/1,22:00,31,61
�����w�O,��������,2022/5/1,23:00,12,31
�����w�O,��������,2022/5/2,0:00,3,9
�����w�O,��������,2022/5/2,1:00,4,7
�����w�O,��������,2022/5/2,2:00,2,3
�����w�O,��������,2022/5/2,3:00,1,3
�����w�O,��������,2022/5/2,4:00,8,4
�����w�O,��������,2022/5/2,5:00,16,17
�����w�O,��������,2022/5/2,6:00,93,56
�����w�O,��������,2022/5/2,7:00,204,183
�����w�O,��������,2022/5/2,8:00,238,296
�����w�O,��������,2022/5/2,9:00,331,345
�����w�O,��������,2022/5/2,10:00,562,573
�����w�O,��������,2022/5/2,11:00,390,452
�����w�O,��������,2022/5/2,12:00,513,573
�����w�O,��������,2022/5/2,13:00,502,525
�����w�O,��������,2022/5/2,14:00,528,673
�����w�O,��������,2022/5/2,15:00,458,514
�����w�O,��������,2022/5/2,16:00,450,521
�����w�O,��������,2022/5/2,17:00,437,430
�����w�O,��������,2022/5/2,18:00,435,409
�����w�O,��������,2022/5/2,19:00,335,397
�����w�O,��������,2022/5/2,20:00,156,190
�����w�O,��������,2022/5/2,21:00,77,127
�����w�O,��������,2022/5/2,22:00,44,65
�����w�O,��������,2022/5/2,23:00,72,151
�����w�O,��������,2022/5/3,0:00,3,27
�����w�O,��������,2022/5/3,1:00,1,2
�����w�O,��������,2022/5/3,2:00,0,1
�����w�O,��������,2022/5/3,3:00,5,5
�����w�O,��������,2022/5/3,4:00,3,3
�����w�O,��������,2022/5/3,5:00,12,9
�����w�O,��������,2022/5/3,6:00,93,118
�����w�O,��������,2022/5/3,7:00,152,141
�����w�O,��������,2022/5/3,8:00,299,306
�����w�O,��������,2022/5/3,9:00,717,644
�����w�O,��������,2022/5/3,10:00,728,742
�����w�O,��������,2022/5/3,11:00,548,585
�����w�O,��������,2022/5/3,12:00,484,461
�����w�O,��������,2022/5/3,13:00,575,672
�����w�O,��������,2022/5/3,14:00,589,655
�����w�O,��������,2022/5/3,15:00,534,631
�����w�O,��������,2022/5/3,16:00,625,677
�����w�O,��������,2022/5/3,17:00,531,685
�����w�O,��������,2022/5/3,18:00,402,441
�����w�O,��������,2022/5/3,19:00,377,409
�����w�O,��������,2022/5/3,20:00,242,251
�����w�O,��������,2022/5/3,21:00,91,111
�����w�O,��������,2022/5/3,22:00,55,115
�����w�O,��������,2022/5/3,23:00,32,45
�����w�O,��������,2022/5/4,0:00,4,16
�����w�O,��������,2022/5/4,1:00,0,3
�����w�O,��������,2022/5/4,2:00,2,4
�����w�O,��������,2022/5/4,3:00,5,8
�����w�O,��������,2022/5/4,4:00,7,3
�����w�O,��������,2022/5/4,5:00,17,11
�����w�O,��������,2022/5/4,6:00,52,48
�����w�O,��������,2022/5/4,7:00,149,130
�����w�O,��������,2022/5/4,8:00,282,357
�����w�O,��������,2022/5/4,9:00,508,452
�����w�O,��������,2022/5/4,10:00,649,587
�����w�O,��������,2022/5/4,11:00,713,696
�����w�O,��������,2022/5/4,12:00,505,609
�����w�O,��������,2022/5/4,13:00,581,612
�����w�O,��������,2022/5/4,14:00,584,583
�����w�O,��������,2022/5/4,15:00,583,660
�����w�O,��������,2022/5/4,16:00,560,618
�����w�O,��������,2022/5/4,17:00,496,630
�����w�O,��������,2022/5/4,18:00,523,493
�����w�O,��������,2022/5/4,19:00,353,385
�����w�O,��������,2022/5/4,20:00,200,233
�����w�O,��������,2022/5/4,21:00,101,109
�����w�O,��������,2022/5/4,22:00,35,89
�����w�O,��������,2022/5/4,23:00,16,53
�����w�O,��������,2022/5/5,0:00,8,20
�����w�O,��������,2022/5/5,1:00,1,4
�����w�O,��������,2022/5/5,2:00,0,2
�����w�O,��������,2022/5/5,3:00,4,6
�����w�O,��������,2022/5/5,4:00,3,2
�����w�O,��������,2022/5/5,5:00,11,15
�����w�O,��������,2022/5/5,6:00,46,52
�����w�O,��������,2022/5/5,7:00,124,111
�����w�O,��������,2022/5/5,8:00,448,507
�����w�O,��������,2022/5/5,9:00,431,413
�����w�O,��������,2022/5/5,10:00,545,607
�����w�O,��������,2022/5/5,11:00,490,495
�����w�O,��������,2022/5/5,12:00,458,522
�����w�O,��������,2022/5/5,13:00,572,535
�����w�O,��������,2022/5/5,14:00,488,514
�����w�O,��������,2022/5/5,15:00,453,474
�����w�O,��������,2022/5/5,16:00,0,0
�����w�O,��������,2022/5/5,17:00,0,0
�����w�O,��������,2022/5/5,18:00,0,0
�����w�O,��������,2022/5/5,19:00,0,0
�����w�O,��������,2022/5/5,20:00,0,0
�����w�O,��������,2022/5/5,21:00,0,0
�����w�O,��������,2022/5/5,22:00,0,0
�����w�O,��������,2022/5/5,23:00,0,0
�����w�O,��������,2022/5/6,0:00,0,0
�����w�O,��������,2022/5/6,1:00,0,0
�����w�O,��������,2022/5/6,2:00,0,0
�����w�O,��������,2022/5/6,3:00,0,0
�����w�O,��������,2022/5/6,4:00,0,0
�����w�O,��������,2022/5/6,5:00,0,0
�����w�O,��������,2022/5/6,6:00,0,0
�����w�O,��������,2022/5/6,7:00,0,0
�����w�O,��������,2022/5/6,8:00,0,0
�����w�O,��������,2022/5/6,9:00,0,0
�����w�O,��������,2022/5/6,10:00,0,0
�����w�O,��������,2022/5/6,11:00,0,0
�����w�O,��������,2022/5/6,12:00,0,0
�����w�O,��������,2022/5/6,13:00,0,0
�����w�O,��������,2022/5/6,14:00,0,0
�����w�O,��������,2022/5/6,15:00,0,0
�����w�O,��������,2022/5/6,16:00,0,0
�����w�O,��������,2022/5/6,17:00,0,0
�����w�O,��������,2022/5/6,18:00,0,0
�����w�O,��������,2022/5/6,19:00,0,0
�����w�O,��������,2022/5/6,20:00,0,0
�����w�O,��������,2022/5/6,21:00,0,0
�����w�O,��������,2022/5/6,22:00,0,0
�����w�O,��������,2022/5/6,23:00,0,0
�����w�O,��������,2022/5/7,0:00,0,0
�����w�O,��������,2022/5/7,1:00,0,0
�����w�O,��������,2022/5/7,2:00,0,0
�����w�O,��������,2022/5/7,3:00,0,0
�����w�O,��������,2022/5/7,4:00,0,0
�����w�O,��������,2022/5/7,5:00,0,0
�����w�O,��������,2022/5/7,6:00,0,0
�����w�O,��������,2022/5/7,7:00,0,0
�����w�O,��������,2022/5/7,8:00,0,0
�����w�O,��������,2022/5/7,9:00,0,0
�����w�O,��������,2022/5/7,10:00,0,0
�����w�O,��������,2022/5/7,11:00,0,0
�����w�O,��������,2022/5/7,12:00,0,0
�����w�O,��������,2022/5/7,13:00,0,0
�����w�O,��������,2022/5/7,14:00,0,0
�����w�O,��������,2022/5/7,15:00,0,0
�����w�O,��������,2022/5/7,16:00,0,0
�����w�O,��������,2022/5/7,17:00,0,0
�����w�O,��������,2022/5/7,18:00,0,0
�����w�O,��������,2022/5/7,19:00,0,0
�����w�O,��������,2022/5/7,20:00,0,0
�����w�O,��������,2022/5/7,21:00,0,0
�����w�O,��������,2022/5/7,22:00,0,0
�����w�O,��������,2022/5/7,23:00,0,0
�����w�O,��������,2022/5/8,0:00,0,0
�����w�O,��������,2022/5/8,1:00,0,0
�����w�O,��������,2022/5/8,2:00,0,0
�����w�O,��������,2022/5/8,3:00,0,0
�����w�O,��������,2022/5/8,4:00,0,0
�����w�O,��������,2022/5/8,5:00,0,0
�����w�O,��������,2022/5/8,6:00,0,0
�����w�O,��������,2022/5/8,7:00,0,0
�����w�O,��������,2022/5/8,8:00,0,0
�����w�O,��������,2022/5/8,9:00,0,0
�����w�O,��������,2022/5/8,10:00,0,0
�����w�O,��������,2022/5/8,11:00,0,0
�����w�O,��������,2022/5/8,12:00,0,0
�����w�O,��������,2022/5/8,13:00,0,0
�����w�O,��������,2022/5/8,14:00,0,0
�����w�O,��������,2022/5/8,15:00,0,0
�����w�O,��������,2022/5/8,16:00,0,0
�����w�O,��������,2022/5/8,17:00,0,0
�����w�O,��������,2022/5/8,18:00,0,0
�����w�O,��������,2022/5/8,19:00,0,0
�����w�O,��������,2022/5/8,20:00,0,0
�����w�O,��������,2022/5/8,21:00,0,0
�����w�O,��������,2022/5/8,22:00,0,0
�����w�O,��������,2022/5/8,23:00,0,0
�����w�O,��������,2022/5/9,0:00,0,0
�����w�O,��������,2022/5/9,1:00,0,0
�����w�O,��������,2022/5/9,2:00,0,0
�����w�O,��������,2022/5/9,3:00,0,0
�����w�O,��������,2022/5/9,4:00,0,0
�����w�O,��������,2022/5/9,5:00,0,0
�����w�O,��������,2022/5/9,6:00,0,0
�����w�O,��������,2022/5/9,7:00,0,0
�����w�O,��������,2022/5/9,8:00,0,0
�����w�O,��������,2022/5/9,9:00,0,0
�����w�O,��������,2022/5/9,10:00,0,0
�����w�O,��������,2022/5/9,11:00,0,0
�����w�O,��������,2022/5/9,12:00,0,0
�����w�O,��������,2022/5/9,13:00,0,0
�����w�O,��������,2022/5/9,14:00,0,0
�����w�O,��������,2022/5/9,15:00,0,0
�����w�O,��������,2022/5/9,16:00,0,0
�����w�O,��������,2022/5/9,17:00,0,0
�����w�O,��������,2022/5/9,18:00,0,0
�����w�O,��������,2022/5/9,19:00,0,0
�����w�O,��������,2022/5/9,20:00,0,0
�����w�O,��������,2022/5/9,21:00,0,0
�����w�O,��������,2022/5/9,22:00,0,0
�����w�O,��������,2022/5/9,23:00,0,0
�����w�O,��������,2022/5/10,0:00,0,0
�����w�O,��������,2022/5/10,1:00,0,0
�����w�O,��������,2022/5/10,2:00,0,0
�����w�O,��������,2022/5/10,3:00,0,0
�����w�O,��������,2022/5/10,4:00,0,0
�����w�O,��������,2022/5/10,5:00,0,0
�����w�O,��������,2022/5/10,6:00,0,0
�����w�O,��������,2022/5/10,7:00,0,0
�����w�O,��������,2022/5/10,8:00,0,0
�����w�O,��������,2022/5/10,9:00,0,0
�����w�O,��������,2022/5/10,10:00,0,0
�����w�O,��������,2022/5/10,11:00,0,0
�����w�O,��������,2022/5/10,12:00,0,0
�����w�O,��������,2022/5/10,13:00,0,0
�����w�O,��������,2022/5/10,14:00,0,0
�����w�O,��������,2022/5/10,15:00,0,0
�����w�O,��������,2022/5/10,16:00,0,0
�����w�O,��������,2022/5/10,17:00,0,0
�����w�O,��������,2022/5/10,18:00,0,0
�����w�O,��������,2022/5/10,19:00,0,0
�����w�O,��������,2022/5/10,20:00,0,0
�����w�O,��������,2022/5/10,21:00,0,0
�����w�O,��������,2022/5/10,22:00,0,0
�����w�O,��������,2022/5/10,23:00,0,0
�����w�O,��������,2022/5/11,0:00,0,0
�����w�O,��������,2022/5/11,1:00,0,0
�����w�O,��������,2022/5/11,2:00,0,0
�����w�O,��������,2022/5/11,3:00,0,0
�����w�O,��������,2022/5/11,4:00,0,0
�����w�O,��������,2022/5/11,5:00,0,0
�����w�O,��������,2022/5/11,6:00,0,0
�����w�O,��������,2022/5/11,7:00,0,0
�����w�O,��������,2022/5/11,8:00,0,0
�����w�O,��������,2022/5/11,9:00,0,0
�����w�O,��������,2022/5/11,10:00,0,0
�����w�O,��������,2022/5/11,11:00,0,0
�����w�O,��������,2022/5/11,12:00,0,0
�����w�O,��������,2022/5/11,13:00,0,0
�����w�O,��������,2022/5/11,14:00,0,0
�����w�O,��������,2022/5/11,15:00,0,0
�����w�O,��������,2022/5/11,16:00,0,0
�����w�O,��������,2022/5/11,17:00,0,0
�����w�O,��������,2022/5/11,18:00,0,0
�����w�O,��������,2022/5/11,19:00,0,0
�����w�O,��������,2022/5/11,20:00,0,0
�����w�O,��������,2022/5/11,21:00,0,0
�����w�O,��������,2022/5/11,22:00,0,0
�����w�O,��������,2022/5/11,23:00,0,0
�����w�O,��������,2022/5/12,0:00,0,0
�����w�O,��������,2022/5/12,1:00,0,0
�����w�O,��������,2022/5/12,2:00,0,0
�����w�O,��������,2022/5/12,3:00,0,0
�����w�O,��������,2022/5/12,4:00,0,0
�����w�O,��������,2022/5/12,5:00,0,0
�����w�O,��������,2022/5/12,6:00,0,0
�����w�O,��������,2022/5/12,7:00,0,0
�����w�O,��������,2022/5/12,8:00,0,0
�����w�O,��������,2022/5/12,9:00,0,0
�����w�O,��������,2022/5/12,10:00,0,0
�����w�O,��������,2022/5/12,11:00,0,0
�����w�O,��������,2022/5/12,12:00,0,0
�����w�O,��������,2022/5/12,13:00,0,0
�����w�O,��������,2022/5/12,14:00,0,0
�����w�O,��������,2022/5/12,15:00,0,0
�����w�O,��������,2022/5/12,16:00,0,0
�����w�O,��������,2022/5/12,17:00,0,0
�����w�O,��������,2022/5/12,18:00,0,0
�����w�O,��������,2022/5/12,19:00,0,0
�����w�O,��������,2022/5/12,20:00,0,0
�����w�O,��������,2022/5/12,21:00,0,0
�����w�O,��������,2022/5/12,22:00,0,0
�����w�O,��������,2022/5/12,23:00,0,0
�����w�O,��������,2022/5/13,0:00,0,0
�����w�O,��������,2022/5/13,1:00,0,0
�����w�O,��������,2022/5/13,2:00,0,0
�����w�O,��������,2022/5/13,3:00,0,0
�����w�O,��������,2022/5/13,4:00,0,0
�����w�O,��������,2022/5/13,5:00,0,0
�����w�O,��������,2022/5/13,6:00,0,0
�����w�O,��������,2022/5/13,7:00,0,0
�����w�O,��������,2022/5/13,8:00,0,0
�����w�O,��������,2022/5/13,9:00,0,0
�����w�O,��������,2022/5/13,10:00,0,0
�����w�O,��������,2022/5/13,11:00,0,0
�����w�O,��������,2022/5/13,12:00,0,0
�����w�O,��������,2022/5/13,13:00,0,0
�����w�O,��������,2022/5/13,14:00,0,0
�����w�O,��������,2022/5/13,15:00,0,0
�����w�O,��������,2022/5/13,16:00,0,0
�����w�O,��������,2022/5/13,17:00,0,0
�����w�O,��������,2022/5/13,18:00,0,0
�����w�O,��������,2022/5/13,19:00,0,0
�����w�O,��������,2022/5/13,20:00,0,0
�����w�O,��������,2022/5/13,21:00,0,0
�����w�O,��������,2022/5/13,22:00,0,0
�����w�O,��������,2022/5/13,23:00,0,0
�����w�O,��������,2022/5/14,0:00,0,0
�����w�O,��������,2022/5/14,1:00,0,0
�����w�O,��������,2022/5/14,2:00,0,0
�����w�O,��������,2022/5/14,3:00,0,0
�����w�O,��������,2022/5/14,4:00,0,0
�����w�O,��������,2022/5/14,5:00,0,0
�����w�O,��������,2022/5/14,6:00,0,0
�����w�O,��������,2022/5/14,7:00,0,0
�����w�O,��������,2022/5/14,8:00,0,0
�����w�O,��������,2022/5/14,9:00,0,0
�����w�O,��������,2022/5/14,10:00,0,0
�����w�O,��������,2022/5/14,11:00,0,0
�����w�O,��������,2022/5/14,12:00,0,0
�����w�O,��������,2022/5/14,13:00,0,0
�����w�O,��������,2022/5/14,14:00,0,0
�����w�O,��������,2022/5/14,15:00,0,0
�����w�O,��������,2022/5/14,16:00,0,0
�����w�O,��������,2022/5/14,17:00,0,0
�����w�O,��������,2022/5/14,18:00,0,0
�����w�O,��������,2022/5/14,19:00,0,0
�����w�O,��������,2022/5/14,20:00,0,0
�����w�O,��������,2022/5/14,21:00,0,0
�����w�O,��������,2022/5/14,22:00,0,0
�����w�O,��������,2022/5/14,23:00,0,0
�����w�O,��������,2022/5/15,0:00,0,0
�����w�O,��������,2022/5/15,1:00,0,0
�����w�O,��������,2022/5/15,2:00,0,0
�����w�O,��������,2022/5/15,3:00,0,0
�����w�O,��������,2022/5/15,4:00,0,0
�����w�O,��������,2022/5/15,5:00,0,0
�����w�O,��������,2022/5/15,6:00,0,0
�����w�O,��������,2022/5/15,7:00,0,0
�����w�O,��������,2022/5/15,8:00,0,0
�����w�O,��������,2022/5/15,9:00,0,0
�����w�O,��������,2022/5/15,10:00,0,0
�����w�O,��������,2022/5/15,11:00,0,0
�����w�O,��������,2022/5/15,12:00,0,0
�����w�O,��������,2022/5/15,13:00,0,0
�����w�O,��������,2022/5/15,14:00,0,0
�����w�O,��������,2022/5/15,15:00,0,0
�����w�O,��������,2022/5/15,16:00,0,0
�����w�O,��������,2022/5/15,17:00,0,0
�����w�O,��������,2022/5/15,18:00,0,0
�����w�O,��������,2022/5/15,19:00,0,0
�����w�O,��������,2022/5/15,20:00,0,0
�����w�O,��������,2022/5/15,21:00,0,0
�����w�O,��������,2022/5/15,22:00,0,0
�����w�O,��������,2022/5/15,23:00,0,0
�����w�O,��������,2022/5/16,0:00,0,0
�����w�O,��������,2022/5/16,1:00,0,0
�����w�O,��������,2022/5/16,2:00,0,0
�����w�O,��������,2022/5/16,3:00,0,0
�����w�O,��������,2022/5/16,4:00,0,0
�����w�O,��������,2022/5/16,5:00,0,0
�����w�O,��������,2022/5/16,6:00,0,0
�����w�O,��������,2022/5/16,7:00,0,0
�����w�O,��������,2022/5/16,8:00,0,0
�����w�O,��������,2022/5/16,9:00,0,0
�����w�O,��������,2022/5/16,10:00,0,0
�����w�O,��������,2022/5/16,11:00,0,0
�����w�O,��������,2022/5/16,12:00,0,0
�����w�O,��������,2022/5/16,13:00,0,0
�����w�O,��������,2022/5/16,14:00,0,0
�����w�O,��������,2022/5/16,15:00,0,0
�����w�O,��������,2022/5/16,16:00,0,0
�����w�O,��������,2022/5/16,17:00,0,0
�����w�O,��������,2022/5/16,18:00,0,0
�����w�O,��������,2022/5/16,19:00,0,0
�����w�O,��������,2022/5/16,20:00,0,0
�����w�O,��������,2022/5/16,21:00,0,0
�����w�O,��������,2022/5/16,22:00,0,0
�����w�O,��������,2022/5/16,23:00,0,0
�����w�O,��������,2022/5/17,0:00,0,0
�����w�O,��������,2022/5/17,1:00,0,0
�����w�O,��������,2022/5/17,2:00,0,0
�����w�O,��������,2022/5/17,3:00,0,0
�����w�O,��������,2022/5/17,4:00,0,0
�����w�O,��������,2022/5/17,5:00,0,0
�����w�O,��������,2022/5/17,6:00,0,0
�����w�O,��������,2022/5/17,7:00,0,0
�����w�O,��������,2022/5/17,8:00,0,0
�����w�O,��������,2022/5/17,9:00,0,0
�����w�O,��������,2022/5/17,10:00,0,0
�����w�O,��������,2022/5/17,11:00,0,0
�����w�O,��������,2022/5/17,12:00,0,0
�����w�O,��������,2022/5/17,13:00,0,0
�����w�O,��������,2022/5/17,14:00,0,0
�����w�O,��������,2022/5/17,15:00,0,0
�����w�O,��������,2022/5/17,16:00,0,0
�����w�O,��������,2022/5/17,17:00,0,0
�����w�O,��������,2022/5/17,18:00,0,0
�����w�O,��������,2022/5/17,19:00,0,0
�����w�O,��������,2022/5/17,20:00,0,0
�����w�O,��������,2022/5/17,21:00,0,0
�����w�O,��������,2022/5/17,22:00,0,0
�����w�O,��������,2022/5/17,23:00,0,0
�����w�O,��������,2022/5/18,0:00,0,0
�����w�O,��������,2022/5/18,1:00,0,0
�����w�O,��������,2022/5/18,2:00,0,0
�����w�O,��������,2022/5/18,3:00,0,0
�����w�O,��������,2022/5/18,4:00,0,0
�����w�O,��������,2022/5/18,5:00,0,0
�����w�O,��������,2022/5/18,6:00,0,0
�����w�O,��������,2022/5/18,7:00,0,0
�����w�O,��������,2022/5/18,8:00,0,0
�����w�O,��������,2022/5/18,9:00,0,0
�����w�O,��������,2022/5/18,10:00,0,0
�����w�O,��������,2022/5/18,11:00,0,0
�����w�O,��������,2022/5/18,12:00,0,0
�����w�O,��������,2022/5/18,13:00,0,0
�����w�O,��������,2022/5/18,14:00,0,0
�����w�O,��������,2022/5/18,15:00,0,0
�����w�O,��������,2022/5/18,16:00,0,0
�����w�O,��������,2022/5/18,17:00,0,0
�����w�O,��������,2022/5/18,18:00,0,0
�����w�O,��������,2022/5/18,19:00,0,0
�����w�O,��������,2022/5/18,20:00,0,0
�����w�O,��������,2022/5/18,21:00,0,0
�����w�O,��������,2022/5/18,22:00,0,0
�����w�O,��������,2022/5/18,23:00,0,0
�����w�O,��������,2022/5/19,0:00,0,0
�����w�O,��������,2022/5/19,1:00,0,0
�����w�O,��������,2022/5/19,2:00,0,0
�����w�O,��������,2022/5/19,3:00,0,0
�����w�O,��������,2022/5/19,4:00,0,0
�����w�O,��������,2022/5/19,5:00,0,0
�����w�O,��������,2022/5/19,6:00,0,0
�����w�O,��������,2022/5/19,7:00,0,0
�����w�O,��������,2022/5/19,8:00,0,0
�����w�O,��������,2022/5/19,9:00,0,0
�����w�O,��������,2022/5/19,10:00,0,0
�����w�O,��������,2022/5/19,11:00,0,0
�����w�O,��������,2022/5/19,12:00,0,0
�����w�O,��������,2022/5/19,13:00,308,285
�����w�O,��������,2022/5/19,14:00,230,235
�����w�O,��������,2022/5/19,15:00,167,176
�����w�O,��������,2022/5/19,16:00,191,209
�����w�O,��������,2022/5/19,17:00,264,211
�����w�O,��������,2022/5/19,18:00,220,231
�����w�O,��������,2022/5/19,19:00,157,189
�����w�O,��������,2022/5/19,20:00,127,128
�����w�O,��������,2022/5/19,21:00,92,153
�����w�O,��������,2022/5/19,22:00,27,42
�����w�O,��������,2022/5/19,23:00,5,22
�����w�O,��������,2022/5/20,0:00,2,9
�����w�O,��������,2022/5/20,1:00,1,7
�����w�O,��������,2022/5/20,2:00,1,0
�����w�O,��������,2022/5/20,3:00,3,2
�����w�O,��������,2022/5/20,4:00,1,2
�����w�O,��������,2022/5/20,5:00,6,6
�����w�O,��������,2022/5/20,6:00,74,51
�����w�O,��������,2022/5/20,7:00,201,171
�����w�O,��������,2022/5/20,8:00,141,243
�����w�O,��������,2022/5/20,9:00,159,201
�����w�O,��������,2022/5/20,10:00,285,336
�����w�O,��������,2022/5/20,11:00,204,220
�����w�O,��������,2022/5/20,12:00,234,247
�����w�O,��������,2022/5/20,13:00,250,271
�����w�O,��������,2022/5/20,14:00,207,274
�����w�O,��������,2022/5/20,15:00,233,236
�����w�O,��������,2022/5/20,16:00,330,296
�����w�O,��������,2022/5/20,17:00,308,295
�����w�O,��������,2022/5/20,18:00,371,428
�����w�O,��������,2022/5/20,19:00,326,374
�����w�O,��������,2022/5/20,20:00,91,94
�����w�O,��������,2022/5/20,21:00,104,112
�����w�O,��������,2022/5/20,22:00,65,93
�����w�O,��������,2022/5/20,23:00,16,58
�����w�O,��������,2022/5/21,0:00,5,22
�����w�O,��������,2022/5/21,1:00,2,5
�����w�O,��������,2022/5/21,2:00,0,3
�����w�O,��������,2022/5/21,3:00,8,11
�����w�O,��������,2022/5/21,4:00,6,0
�����w�O,��������,2022/5/21,5:00,12,11
�����w�O,��������,2022/5/21,6:00,64,45
�����w�O,��������,2022/5/21,7:00,142,98
�����w�O,��������,2022/5/21,8:00,166,181
�����w�O,��������,2022/5/21,9:00,265,293
�����w�O,��������,2022/5/21,10:00,311,287
�����w�O,��������,2022/5/21,11:00,311,358
�����w�O,��������,2022/5/21,12:00,316,326
�����w�O,��������,2022/5/21,13:00,327,308
�����w�O,��������,2022/5/21,14:00,280,313
�����w�O,��������,2022/5/21,15:00,262,283
�����w�O,��������,2022/5/21,16:00,305,334
�����w�O,��������,2022/5/21,17:00,266,247
�����w�O,��������,2022/5/21,18:00,235,245
�����w�O,��������,2022/5/21,19:00,172,200
�����w�O,��������,2022/5/21,20:00,116,124
�����w�O,��������,2022/5/21,21:00,105,165
�����w�O,��������,2022/5/21,22:00,67,83
�����w�O,��������,2022/5/21,23:00,15,44
�����w�O,��������,2022/5/22,0:00,3,6
�����w�O,��������,2022/5/22,1:00,1,6
�����w�O,��������,2022/5/22,2:00,1,4
�����w�O,��������,2022/5/22,3:00,5,4
�����w�O,��������,2022/5/22,4:00,2,3
�����w�O,��������,2022/5/22,5:00,16,14
�����w�O,��������,2022/5/22,6:00,37,24
�����w�O,��������,2022/5/22,7:00,128,106
�����w�O,��������,2022/5/22,8:00,142,136
�����w�O,��������,2022/5/22,9:00,227,180
�����w�O,��������,2022/5/22,10:00,333,245
�����w�O,��������,2022/5/22,11:00,319,293
�����w�O,��������,2022/5/22,12:00,296,321
�����w�O,��������,2022/5/22,13:00,355,354
�����w�O,��������,2022/5/22,14:00,398,466
�����w�O,��������,2022/5/22,15:00,385,416
�����w�O,��������,2022/5/22,16:00,274,257
�����w�O,��������,2022/5/22,17:00,258,287
�����w�O,��������,2022/5/22,18:00,185,234
�����w�O,��������,2022/5/22,19:00,163,156
�����w�O,��������,2022/5/22,20:00,66,77
�����w�O,��������,2022/5/22,21:00,58,76
�����w�O,��������,2022/5/22,22:00,23,52
�����w�O,��������,2022/5/22,23:00,9,18
�����w�O,��������,2022/5/23,0:00,3,7
�����w�O,��������,2022/5/23,1:00,0,2
�����w�O,��������,2022/5/23,2:00,1,2
�����w�O,��������,2022/5/23,3:00,2,2
�����w�O,��������,2022/5/23,4:00,2,3
�����w�O,��������,2022/5/23,5:00,11,7
�����w�O,��������,2022/5/23,6:00,86,70
�����w�O,��������,2022/5/23,7:00,206,197
�����w�O,��������,2022/5/23,8:00,173,208
�����w�O,��������,2022/5/23,9:00,159,207
�����w�O,��������,2022/5/23,10:00,178,213
�����w�O,��������,2022/5/23,11:00,201,267
�����w�O,��������,2022/5/23,12:00,210,237
�����w�O,��������,2022/5/23,13:00,230,215
�����w�O,��������,2022/5/23,14:00,233,237
�����w�O,��������,2022/5/23,15:00,183,238
�����w�O,��������,2022/5/23,16:00,246,264
�����w�O,��������,2022/5/23,17:00,279,278
�����w�O,��������,2022/5/23,18:00,245,218
�����w�O,��������,2022/5/23,19:00,183,205
�����w�O,��������,2022/5/23,20:00,113,138
�����w�O,��������,2022/5/23,21:00,50,51
�����w�O,��������,2022/5/23,22:00,30,56
�����w�O,��������,2022/5/23,23:00,10,34
�����w�O,��������,2022/5/24,0:00,1,4
�����w�O,��������,2022/5/24,1:00,0,3
�����w�O,��������,2022/5/24,2:00,1,0
�����w�O,��������,2022/5/24,3:00,3,4
�����w�O,��������,2022/5/24,4:00,3,2
�����w�O,��������,2022/5/24,5:00,16,10
�����w�O,��������,2022/5/24,6:00,76,60
�����w�O,��������,2022/5/24,7:00,187,162
�����w�O,��������,2022/5/24,8:00,155,227
�����w�O,��������,2022/5/24,9:00,175,277
�����w�O,��������,2022/5/24,10:00,145,187
�����w�O,��������,2022/5/24,11:00,178,195
�����w�O,��������,2022/5/24,12:00,223,245
�����w�O,��������,2022/5/24,13:00,163,190
�����w�O,��������,2022/5/24,14:00,165,167
�����w�O,��������,2022/5/24,15:00,168,212
�����w�O,��������,2022/5/24,16:00,206,197
�����w�O,��������,2022/5/24,17:00,256,251
�����w�O,��������,2022/5/24,18:00,263,241
�����w�O,��������,2022/5/24,19:00,226,232
�����w�O,��������,2022/5/24,20:00,237,295
�����w�O,��������,2022/5/24,21:00,74,77
�����w�O,��������,2022/5/24,22:00,34,62
�����w�O,��������,2022/5/24,23:00,20,23
�����w�O,��������,2022/5/25,0:00,1,3
�����w�O,��������,2022/5/25,1:00,0,1
�����w�O,��������,2022/5/25,2:00,1,2
�����w�O,��������,2022/5/25,3:00,3,4
�����w�O,��������,2022/5/25,4:00,4,3
�����w�O,��������,2022/5/25,5:00,8,10
�����w�O,��������,2022/5/25,6:00,74,48
�����w�O,��������,2022/5/25,7:00,187,165
�����w�O,��������,2022/5/25,8:00,155,239
�����w�O,��������,2022/5/25,9:00,169,216
�����w�O,��������,2022/5/25,10:00,170,189
�����w�O,��������,2022/5/25,11:00,324,327
�����w�O,��������,2022/5/25,12:00,246,272
�����w�O,��������,2022/5/25,13:00,206,231
�����w�O,��������,2022/5/25,14:00,162,185
�����w�O,��������,2022/5/25,15:00,260,278
�����w�O,��������,2022/5/25,16:00,476,382
�����w�O,��������,2022/5/25,17:00,319,271
�����w�O,��������,2022/5/25,18:00,230,234
�����w�O,��������,2022/5/25,19:00,202,243
�����w�O,��������,2022/5/25,20:00,93,129
�����w�O,��������,2022/5/25,21:00,155,181
�����w�O,��������,2022/5/25,22:00,33,42
�����w�O,��������,2022/5/25,23:00,24,38
�����w�O,��������,2022/5/26,0:00,3,10
�����w�O,��������,2022/5/26,1:00,1,2
�����w�O,��������,2022/5/26,2:00,0,0
�����w�O,��������,2022/5/26,3:00,5,3
�����w�O,��������,2022/5/26,4:00,3,3
�����w�O,��������,2022/5/26,5:00,63,9
�����w�O,��������,2022/5/26,6:00,92,47